Location: Baix
(44.7118°N, 4.7648°E)
Time: 15:45:36
(UTC+00:00)

Explorer 11/Cluster Stage 4 - Pass Details

Date: 28 November 2020
Orbit: 467 x 1258 km, 28.8° (Epoch: 14 January)

Event Time Altitude Azimuth Distance (km) Brightness Sun altitude
Rises 23:10:32 0° 238° (WSW) 3,515 - -66.5°
Reaches altitude 10° 23:14:39 10° 215° (SW) 2,372 - -66.6°
Maximum altitude 23:17:20 14° 186° (S) 1,997 - -66.7°
Drops below altitude 10° 23:19:46 10° 156° (SSE) 2,117 - -66.7°
Sets 23:23:04 0° 130° (SE) 2,867 - -66.8°
